Retour au catalogue

STARLINK-37629

ActifCommunicationsVLEO
NORAD 69443·PAYLOAD·🇺🇸 United States

Lancé Jun 8, 2026 depuis Cape Canaveral Space Force Station

Loading…

Prochains Passages (prochaines 24 heures)

TLE

FraisSource: CelesTrak SupGP

Époque: Sep 15, 2026, 04:16 UTC

1 69443C 26127A   26258.17826389 -.00044147  00000+0 -13046-2 0  2586
2 69443  53.1571 190.6276 0001279  90.0742 307.5831 15.34406997    18

Suivez STARLINK-37629 en temps réel avec AllMySat

Download on the App Store